Location: Dampvalley
(47.9094°N, 6.1967°E)
Time: 19:35:27
(UTC+00:00)

Cosmos 2333 Rocket - Pass Details

Date: 05 March 2021
Orbit: 837 x 864 km, 70.8° (Epoch: 22 April)

Event Time Altitude Azimuth Distance (km) Brightness Sun altitude
Rises 03:25:35 0° 335° (NNW) 3,446 5.4 -27.6°
Reaches altitude 10° 03:28:16 10° 344° (NNW) 2,509 4.7 -27.1°
Maximum altitude 03:33:33 36° 51° (NE) 1,340 3.7 -26.3°
Drops below altitude 10° 03:38:50 10° 117° (ESE) 2,503 5.2 -25.5°
Sets 03:41:30 0° 126° (SE) 3,437 5.8 -25.1°
